Wind_Speed
48 47 47 48 50 51 52 52 52 51 51 50 49 48 48 47 47 46 46 47 48 48 48 48 48 48 47 47 47 47 47 47 47 47 46 46 46 45 45 44 44 43 42 41 39 38 36 35 34 33 32 31 30 30 29 28 27 26 26 26 26 26 25 25 25 24 24 24 24 23 23 25 27 26 23 22 22 22 22 23 23 23 23 23 22 22 22 22
50 48 48 48 49 51 52 53 54 53 53 52 51 51 50 49 48 47 46 46 46 46 46 46 46 46 46 46 46 46 46 46 45 45 45 44 44 44 43 43 42 41 40 38 37 36 35 34 33 32 31 30 29 29 29 28 27 27 26 26 25 25 26 26 26 25 24 25 25 24 23 25 28 28 25 24 23 22 23 24 24 24 24 24 24 24 24 23
52 50 49 48 49 50 52 53 54 55 54 54 53 53 52 51 50 49 48 47 47 46 46 45 45 45 45 45 45 45 45 45 44 43 43 43 42 42 41 40 40 39 38 37 36 35 34 33 32 31 30 30 30 29 29 29 29 28 28 26 25 25 26 27 27 26 25 26 25 24 24 25 28 28 27 25 24 23 25 25 25 25 25 25 25 25 25 25
54 52 51 50 50 50 51 53 54 55 56 55 55 54 53 52 52 51 50 50 49 48 47 46 45 45 45 45 45 44 44 44 43 43 42 41 41 40 39 39 38 37 36 36 36 35 34 33 32 32 31 31 30 30 30 30 30 30 29 27 26 26 27 28 27 27 26 26 27 26 24 25 27 29 29 27 25 25 26 26 26 25 25 26 26 26 25 26
56 55 53 52 51 51 51 52 54 55 56 57 56 56 55 54 53 52 52 51 51 50 49 48 47 46 46 45 45 44 44 43 43 42 41 40 40 39 39 38 38 37 36 36 36 35 34 33 33 32 32 32 31 31 32 32 32 32 30 29 27 27 28 28 28 27 27 27 28 27 26 26 27 29 29 28 26 27 28 28 26 25 24 26 27 28 27 27
59 57 55 53 52 52 52 52 53 54 55 57 57 57 56 55 54 54 53 53 52 51 50 50 48 47 47 46 46 45 44 44 43 42 42 41 40 40 39 39 38 38 37 37 36 36 35 34 34 34 33 33 33 33 33 33 33 33 32 30 29 28 29 29 29 28 27 28 28 29 28 28 29 29 29 27 27 28 30 29 27 25 25 26 27 29 29 28
61 59 57 56 54 53 53 53 54 54 55 56 57 58 58 57 56 55 54 54 53 53 52 51 50 49 49 48 47 46 45 45 44 43 43 42 41 41 40 40 39 38 38 38 37 36 36 36 36 36 35 34 35 34 35 35 34 34 33 32 31 30 30 30 30 29 28 29 29 29 29 30 31 30 28 27 27 30 32 31 28 26 26 26 27 28 29 29
63 62 60 58 56 55 54 54 54 55 55 56 56 57 58 58 57 57 56 55 54 54 54 53 52 51 51 50 49 48 47 46 45 44 44 43 42 42 41 41 40 39 39 39 38 37 37 37 38 38 37 36 36 36 36 36 36 36 35 34 33 32 31 30 30 30 30 31 30 30 29 31 32 32 29 27 28 32 33 32 30 28 27 27 28 28 29 29
64 64 62 61 59 57 56 55 55 55 55 55 56 56 57 57 58 58 57 57 56 55 55 54 54 53 52 51 51 50 49 48 47 46 46 45 44 43 42 42 41 41 40 40 39 39 39 39 39 39 39 39 38 38 38 38 38 37 36 36 35 34 33 31 30 30 32 33 33 31 30 31 33 33 31 28 30 33 33 33 32 30 29 28 29 29 29 29
66 65 64 63 61 60 58 57 56 56 56 56 56 56 56 56 57 58 58 58 58 57 57 55 55 54 53 53 52 51 50 49 48 47 47 46 46 45 44 44 43 42 42 42 41 41 40 40 41 41 41 41 40 40 40 40 41 39 38 38 37 36 35 33 31 30 32 34 34 33 31 32 34 34 32 30 32 33 33 34 34 33 31 30 30 30 30 30
68 67 66 65 63 62 60 59 57 57 57 57 56 56 56 55 55 56 57 58 58 58 58 57 57 56 55 54 53 52 52 51 50 49 48 48 47 46 46 46 45 44 44 44 43 43 42 42 42 43 43 44 43 42 43 42 42 41 40 40 39 38 36 34 33 32 33 35 35 33 32 34 35 34 34 33 33 33 33 34 34 34 34 32 31 31 31 31
69 68 67 66 65 64 62 61 60 58 57 57 57 57 56 56 55 55 56 57 57 58 58 58 58 57 56 56 55 54 54 52 52 51 50 50 49 49 48 48 47 47 46 46 46 45 45 44 44 45 46 46 46 45 45 44 43 43 43 42 41 40 38 37 36 35 36 35 34 33 33 37 36 34 35 35 35 35 35 35 35 35 36 35 34 33 32 32
70 70 69 68 67 66 65 64 62 61 60 58 58 58 57 56 56 56 56 56 57 57 57 57 57 56 56 57 56 56 56 55 54 54 53 52 51 51 51 50 50 49 49 49 48 48 47 47 46 47 47 48 47 47 47 47 46 46 45 44 43 42 41 40 39 39 38 35 35 33 34 39 38 34 36 37 37 37 36 36 36 36 37 37 37 36 34 33
70 70 70 69 68 67 66 66 65 64 62 61 60 59 58 58 57 57 57 57 57 56 56 56 55 55 54 55 56 56 56 56 56 55 55 54 54 54 53 53 52 52 52 51 51 50 49 49 49 49 49 49 50 49 50 50 50 48 47 46 44 43 44 44 43 42 39 37 36 33 33 40 40 35 37 38 39 40 39 39 38 37 38 38 39 38 36 36
72 71 71 71 70 68 68 67 67 66 65 64 62 61 59 59 58 58 58 58 58 57 57 56 55 54 53 54 54 54 54 55 55 55 55 55 55 55 55 55 54 54 54 53 53 52 51 51 51 51 51 51 52 52 52 52 52 50 48 47 46 46 47 48 46 44 41 38 37 35 34 41 43 37 37 39 40 41 41 41 40 39 40 40 40 39 39 38
74 73 72 72 71 70 69 68 68 67 66 66 65 63 61 60 59 59 58 58 58 57 57 57 57 56 55 55 54 53 54 55 54 54 54 54 54 54 55 54 54 54 54 54 53 53 53 52 52 51 51 52 53 54 55 54 54 52 49 48 48 49 49 50 48 46 43 39 37 36 35 41 45 40 38 40 41 42 43 43 42 42 43 42 41 41 41 41
75 75 73 73 73 72 71 70 69 69 68 67 66 65 64 62 61 60 59 58 57 57 57 57 57 57 56 56 56 56 56 55 54 53 53 53 53 53 53 53 53 53 53 53 53 53 53 53 52 52 53 54 56 58 57 55 54 52 50 50 50 51 51 51 51 48 45 41 39 37 37 41 44 42 41 41 40 42 44 45 46 46 45 44 43 43 43 43
76 76 76 74 74 74 72 71 70 70 69 68 67 66 65 64 63 62 61 59 58 57 56 56 57 57 57 59 60 59 58 56 54 53 52 52 52 52 52 52 52 52 52 52 52 52 51 51 51 51 53 56 59 59 56 54 54 52 52 52 52 51 51 52 52 50 46 43 41 39 38 42 44 43 43 42 41 42 45 47 48 49 47 46 46 45 45 44
77 77 77 76 75 75 74 72 71 71 71 70 69 67 66 66 65 64 63 62 60 59 58 58 58 58 58 60 61 60 59 56 55 54 53 52 52 51 52 52 52 51 51 51 51 50 50 49 49 50 53 58 59 57 54 54 54 53 53 52 52 51 51 53 53 50 47 45 43 42 40 41 45 45 44 42 42 44 47 49 49 50 50 49 48 47 47 46
77 77 77 77 77 76 75 75 73 72 72 72 71 70 68 67 67 66 66 65 64 64 63 62 61 58 58 59 59 59 59 58 57 56 55 54 53 52 52 52 51 51 51 51 50 49 49 47 47 51 55 58 56 54 53 54 54 53 53 52 51 51 51 54 53 50 49 45 44 46 42 41 45 47 45 43 43 47 49 50 51 51 51 50 50 49 49 47
77 76 76 77 77 76 77 77 75 74 73 73 73 72 71 70 70 69 68 68 68 68 66 65 62 59 58 58 58 59 59 58 58 58 57 56 55 54 54 53 53 53 52 52 51 51 50 47 49 54 56 56 54 53 54 55 54 53 52 51 51 50 52 54 53 51 50 45 44 47 43 41 45 47 47 46 45 48 51 52 53 52 51 51 51 51 50 49
78 76 74 74 74 73 74 75 76 75 75 74 74 73 73 73 73 72 71 70 70 70 69 66 63 61 60 59 58 59 59 58 58 59 59 58 57 56 56 55 55 56 55 54 54 54 52 50 53 57 57 55 55 55 55 55 54 52 51 51 50 51 52 53 53 52 50 47 45 47 44 42 45 46 47 49 48 50 52 54 54 53 52 52 53 52 52 51
80 78 77 75 74 73 72 72 74 75 75 74 74 75 76 75 75 74 74 73 71 71 69 67 65 63 62 60 59 59 58 58 58 58 59 58 59 59 58 58 59 59 57 57 57 56 54 54 57 58 57 57 57 56 56 55 54 53 52 50 50 52 53 52 53 53 51 49 46 47 44 41 44 46 47 51 51 52 54 54 55 55 54 53 53 53 53 52
83 81 81 79 79 78 75 75 74 73 74 73 74 76 77 77 76 76 76 75 73 71 69 68 67 65 63 62 61 60 58 58 58 58 59 59 60 61 60 61 61 59 58 59 60 58 57 57 58 59 59 58 58 57 56 55 55 54 53 51 51 54 54 52 53 54 52 49 47 48 44 39 43 46 48 53 54 54 57 56 55 56 55 54 54 54 54 53
89 85 83 82 81 81 81 79 74 73 75 75 74 75 76 76 77 77 77 77 74 71 70 68 65 64 66 66 62 60 60 59 58 59 60 60 62 62 61 62 60 59 61 63 62 59 57 58 59 60 61 60 59 58 57 57 56 55 53 52 54 55 55 54 54 53 51 49 49 49 43 36 40 46 48 53 54 55 59 58 57 57 55 55 55 55 55 54
95 91 87 84 82 82 82 79 77 78 80 80 79 77 76 75 76 77 78 79 76 71 69 67 64 63 65 65 63 64 64 60 59 61 61 62 63 63 63 62 61 61 63 65 63 58 57 60 61 61 61 61 59 57 58 59 59 55 52 55 57 56 56 55 54 52 50 49 49 48 44 37 37 44 49 50 51 55 62 60 57 57 55 55 55 55 55 55
98 97 94 89 85 83 81 79 81 82 83 84 83 81 78 77 78 79 80 82 76 68 68 68 64 62 63 65 66 68 65 59 61 64 63 64 65 64 64 62 62 63 65 67 62 56 57 62 63 61 60 59 57 57 60 62 60 55 55 59 60 58 57 56 55 53 50 49 46 45 48 43 38 42 46 46 48 55 62 61 58 57 55 54 54 54 54 55
100 100 99 96 93 89 84 82 82 83 84 86 86 84 82 81 82 82 84 85 75 65 66 66 64 61 61 64 66 67 65 61 64 65 64 65 65 65 64 63 63 64 66 67 62 58 59 61 61 60 60 58 57 60 63 64 61 58 58 61 62 61 59 58 56 54 52 48 43 43 51 50 39 38 42 42 46 54 61 62 59 57 55 53 52 53 54 54
102 102 101 101 100 96 91 87 84 85 87 87 87 86 85 85 85 86 89 88 75 64 64 64 63 62 60 62 65 65 65 63 65 66 66 67 66 65 64 64 65 66 67 66 63 61 61 61 61 61 60 59 61 63 64 64 63 62 61 61 62 62 60 60 58 56 54 47 41 44 54 53 40 33 36 38 44 54 61 64 61 58 56 54 52 52 53 54
104 103 103 103 102 99 96 92 90 92 93 92 91 90 89 90 89 91 93 88 74 66 66 65 63 63 62 63 63 64 64 65 65 67 69 69 68 68 66 66 67 67 67 66 64 63 63 63 63 62 62 63 64 65 65 66 65 64 63 62 63 63 62 62 58 56 55 46 42 48 54 53 39 28 31 38 44 52 59 62 60 58 56 54 52 52 52 53
106 105 105 105 103 100 98 95 96 99 99 98 97 96 96 95 94 97 94 85 76 72 72 70 65 64 64 64 65 65 66 66 67 69 70 69 69 69 68 68 68 68 67 66 65 64 65 64 64 64 64 65 66 66 67 68 67 67 67 65 66 64 62 61 57 57 55 48 46 50 53 51 39 29 34 41 46 50 56 59 60 57 55 53 52 52 53 53
107 106 106 105 103 102 99 97 98 101 102 101 101 101 101 101 101 100 92 84 81 78 77 75 68 65 67 68 69 69 69 69 69 70 71 71 71 70 69 68 68 70 69 67 67 69 68 67 66 66 65 66 68 68 69 70 70 70 69 67 66 65 63 60 58 58 56 51 49 51 52 49 40 36 41 46 49 51 53 58 60 57 54 53 52 53 54 53
108 108 107 105 104 103 101 100 101 103 103 103 103 104 105 107 105 98 89 85 83 79 78 79 75 72 72 71 71 71 71 71 70 71 72 73 73 72 71 70 69 70 68 68 71 72 72 71 70 69 68 69 70 71 71 72 72 72 70 68 67 65 63 60 59 59 56 53 52 52 51 46 39 42 47 51 55 55 54 57 58 56 54 52 53 54 55 54
109 109 108 107 106 105 105 105 105 105 105 105 106 107 109 109 104 95 87 83 81 80 80 81 81 81 80 77 75 73 73 73 72 73 74 74 74 72 71 71 71 70 69 70 71 73 73 72 72 73 73 73 74 74 75 75 74 72 69 69 66 64 63 62 60 59 55 53 53 51 48 43 40 44 49 52 55 57 58 58 57 56 55 53 54 55 55 54
109 110 110 109 108 107 107 107 107 107 108 108 109 110 112 109 102 94 85 78 77 78 79 82 84 86 85 82 80 78 78 77 75 76 76 76 75 73 72 73 73 73 73 74 74 75 76 74 73 76 77 76 76 76 76 76 74 71 69 67 63 62 65 65 61 58 56 55 52 49 46 43 44 46 48 50 53 57 60 59 58 58 56 55 55 55 55 55
110 111 111 110 108 108 108 108 108 110 110 111 112 113 113 107 99 92 86 81 79 77 79 82 84 85 87 86 84 82 81 80 79 79 79 78 76 74 73 73 74 75 75 77 78 78 79 78 76 77 77 76 76 76 76 75 74 71 68 66 64 66 68 66 62 58 57 55 50 46 46 46 48 48 48 52 55 57 60 60 60 60 58 56 56 55 56 56
111 112 112 110 107 107 109 109 110 112 113 115 115 115 112 106 99 94 90 88 86 82 80 80 79 80 83 85 85 83 82 82 82 82 81 80 79 76 74 74 75 76 76 78 81 81 81 80 77 76 76 76 76 76 76 75 73 71 69 68 69 70 68 67 65 60 59 57 51 48 48 49 50 48 48 53 55 57 60 61 61 62 60 58 58 58 58 58
112 113 113 110 108 108 109 110 113 115 117 120 120 117 113 107 100 95 91 90 89 88 84 81 78 77 77 80 83 84 85 84 83 83 83 83 81 77 75 75 76 76 77 80 82 83 82 81 79 77 76 76 77 77 75 74 74 72 71 72 72 70 67 67 66 63 63 62 56 52 50 50 49 47 48 51 53 56 60 61 62 63 62 61 60 60 60 60
113 114 112 109 109 109 109 111 114 117 121 124 123 117 111 104 97 94 94 93 91 90 88 85 83 81 79 79 81 85 87 86 84 84 83 82 79 74 73 74 74 75 78 81 83 84 84 84 80 77 76 76 76 75 74 73 75 75 74 72 71 69 67 67 67 66 65 64 60 55 52 50 48 48 50 52 52 57 61 64 65 65 64 63 62 62 61 61
114 114 110 108 110 111 112 114 117 119 121 122 120 114 106 100 96 95 98 97 94 91 87 84 86 87 85 83 84 86 88 87 86 86 84 82 78 73 71 71 72 74 78 82 84 84 85 85 82 79 78 78 75 73 73 75 77 77 74 71 69 69 69 68 68 68 67 66 63 60 56 51 49 49 50 51 52 58 63 66 66 66 65 65 65 64 64 63
115 114 109 107 111 113 115 119 122 121 119 117 114 108 102 98 96 97 99 98 96 94 88 84 86 88 88 87 87 88 89 89 89 88 86 83 79 74 70 70 71 74 78 82 83 82 83 84 84 83 80 77 76 76 76 77 76 75 74 71 69 70 71 71 70 69 70 69 67 66 60 51 48 50 50 51 54 60 65 67 67 67 67 67 67 67 66 66
117 115 110 108 111 114 117 122 123 123 120 114 107 101 97 97 98 99 100 99 98 95 90 86 85 87 87 87 87 89 91 91 90 90 87 83 80 78 75 75 77 79 82 83 83 82 83 85 85 84 80 78 79 80 80 79 78 78 76 73 73 73 73 74 74 73 74 72 69 69 63 52 50 54 53 53 56 60 65 68 68 69 69 70 70 70 70 68
119 117 113 111 112 114 118 121 122 122 120 113 107 102 99 97 98 99 100 101 99 95 90 87 86 87 88 87 89 92 94 94 93 91 88 84 82 80 81 83 83 85 86 85 84 84 86 88 86 84 82 80 80 80 79 79 80 79 78 76 75 75 76 79 80 78 77 73 70 72 66 54 52 54 54 55 58 62 67 69 69 70 70 71 73 73 73 71
121 119 116 116 117 118 119 121 121 120 118 114 110 109 106 101 99 98 97 97 97 96 94 90 87 89 90 91 93 94 95 96 94 91 88 87 84 83 85 87 87 87 87 85 85 87 89 89 87 86 85 82 80 78 76 74 75 75 75 75 75 76 80 83 83 82 80 73 72 74 66 55 54 57 58 59 61 65 70 71 71 71 70 71 73 74 75 75
125 123 121 120 121 121 121 121 121 120 118 117 114 113 110 107 103 100 97 95 96 98 97 94 91 92 94 95 95 95 94 94 92 89 88 87 84 83 86 88 87 87 86 86 87 89 91 90 88 87 86 83 80 77 74 73 74 75 75 76 78 80 83 85 85 86 81 75 76 76 67 61 62 64 64 65 66 70 73 74 74 74 74 74 75 77 78 78
128 127 125 124 123 122 121 120 121 121 119 118 117 114 112 110 106 103 103 101 99 98 98 97 96 96 97 98 97 95 93 91 90 89 86 83 80 82 86 89 87 86 86 88 90 92 93 92 89 88 87 84 81 80 80 80 81 81 79 79 81 83 85 88 88 86 82 80 80 75 70 69 69 68 69 70 71 73 74 75 76 76 76 76 77 78 79 80
133 131 129 127 125 124 122 121 121 121 119 118 117 115 113 111 109 108 109 107 104 102 101 101 101 100 99 98 96 95 93 92 93 91 87 83 82 83 86 88 88 86 86 89 92 94 94 93 91 90 89 87 86 87 88 87 86 85 84 84 85 87 90 91 89 85 85 86 81 74 75 76 70 69 72 73 73 74 74 76 77 77 76 76 76 77 77 78
139 136 133 131 130 128 126 123 122 122 121 120 120 118 116 115 114 113 114 112 109 108 108 107 105 102 100 98 97 97 96 96 96 93 88 85 84 85 87 88 88 88 88 91 93 94 95 94 92 92 92 89 89 92 93 92 92 91 90 88 88 90 93 92 89 86 88 88 80 75 79 77 70 69 73 74 75 76 77 78 78 77 76 75 75 74 74 74
144 141 138 137 137 135 131 128 126 126 125 126 127 125 123 121 120 119 119 118 117 117 116 113 108 103 101 101 101 101 100 98 96 93 90 88 87 87 87 88 88 88 89 92 93 94 96 95 92 92 93 91 91 94 94 95 95 94 93 91 90 90 90 88 86 84 86 84 79 78 82 77 70 70 73 75 78 79 79 79 78 77 76 74 72 70 68 67
150 147 144 142 142 140 138 135 134 132 130 130 132 132 130 127 125 125 125 124 122 121 120 116 109 104 103 105 106 106 103 100 97 94 95 95 94 91 90 90 89 90 92 94 95 95 97 96 93 93 95 94 93 94 95 95 95 94 94 93 91 88 86 84 82 80 82 81 78 82 84 76 70 71 75 78 80 80 79 77 76 75 73 70 66 63 60 60
153 152 150 148 146 144 141 140 140 139 137 134 133 133 132 129 125 125 127 127 125 122 121 117 111 108 107 108 109 108 105 103 101 99 100 101 100 97 96 94 93 94 95 95 95 96 97 96 95 95 98 97 95 95 97 96 96 96 95 91 87 85 86 84 81 80 81 79 79 83 81 72 69 74 77 78 78 77 76 74 74 72 69 64 60 58 57 57
156 154 154 153 152 150 147 144 143 142 141 138 135 132 131 129 125 124 125 127 126 123 120 117 114 112 112 112 110 107 104 104 105 105 105 105 104 102 101 99 97 96 96 96 96 95 95 95 94 96 99 99 97 98 98 99 101 100 93 86 84 86 88 86 83 81 81 80 81 80 74 69 72 75 75 75 75 74 73 72 71 68 64 61 59 59 60 61
Wind_Direction
229 228 228 229 229 228 227 225 224 223 223 223 223 224 225 226 227 228 228 230 231 232 233 234 235 237 238 239 241 242 243 244 245 247 248 250 251 252 254 255 256 257 258 258 259 259 259 259 260 260 261 263 264 264 265 265 265 266 267 268 270 270 271 271 269 267 267 269 270 271 271 272 272 272 270 267 265 266 267 268 269 271 272 272 273 273 275 277
230 229 228 229 229 229 229 228 226 225 225 225 225 224 225 226 227 227 228 229 230 232 233 234 235 236 238 239 240 241 242 244 245 246 247 249 250 251 252 254 255 255 256 257 257 258 258 258 259 260 262 263 265 267 267 268 268 267 266 267 268 270 271 271 270 270 269 270 270 271 272 273 274 274 272 270 267 267 267 268 269 270 271 273 274 274 275 277
230 230 229 229 229 230 230 230 229 227 227 227 227 226 226 226 227 228 229 230 230 231 232 233 234 235 236 238 239 239 241 242 243 244 246 247 249 250 251 252 253 254 254 255 256 257 257 258 259 261 263 265 266 268 269 270 270 268 267 267 267 269 270 270 271 272 272 271 271 271 271 272 274 275 274 272 270 268 268 268 269 270 272 273 273 274 276 276
231 231 230 229 230 230 230 231 231 230 229 228 228 228 228 227 227 228 229 230 231 231 232 233 234 235 236 237 238 238 240 241 242 243 245 246 247 249 250 250 251 252 253 255 256 257 258 259 260 262 264 265 267 269 270 270 270 270 269 269 268 268 268 268 270 272 272 272 272 271 270 271 272 274 274 274 273 270 268 267 268 270 273 274 274 274 274 275
232 231 231 230 230 231 231 231 232 232 231 230 230 230 230 229 229 229 230 230 231 232 233 233 234 235 236 237 238 238 240 241 242 243 244 245 246 247 249 250 251 252 254 255 256 258 259 260 261 262 264 266 267 268 270 270 271 271 271 271 269 268 267 267 267 269 270 272 272 272 270 270 270 272 274 276 277 274 270 268 269 270 271 272 274 275 274 276
232 232 232 232 232 232 232 232 233 233 233 233 232 232 231 231 231 231 231 232 232 233 233 234 234 235 236 237 238 239 240 241 243 243 244 245 247 248 249 250 252 253 254 255 256 258 260 261 262 262 264 266 267 268 270 270 271 272 272 272 270 268 267 266 266 266 268 269 271 272 272 271 269 269 272 276 277 276 273 271 271 271 269 270 272 274 276 277
233 232 232 233 233 233 233 233 234 234 234 235 234 234 233 233 233 233 233 233 234 234 234 234 235 235 236 237 238 239 240 242 243 244 245 246 247 249 250 251 252 253 255 256 257 259 260 261 262 263 264 265 267 269 270 271 272 273 273 272 271 269 268 267 267 266 265 265 267 270 272 273 272 271 272 274 275 274 274 274 274 272 270 270 270 272 275 276
233 233 233 232 233 234 234 234 234 235 235 235 236 236 235 235 234 235 235 235 235 236 236 236 236 236 237 238 239 240 240 242 243 244 246 247 248 249 251 252 253 254 255 256 258 259 261 262 263 263 264 265 266 268 269 271 272 272 273 273 271 270 268 267 268 269 267 265 264 265 268 271 273 274 274 274 273 272 274 276 275 274 272 271 270 271 272 275
234 234 233 233 233 234 235 235 235 235 236 236 237 237 237 236 236 236 237 237 237 238 238 238 239 238 238 239 240 241 241 242 243 244 246 247 248 249 250 252 253 254 255 257 258 259 261 262 263 264 265 265 266 267 269 271 271 271 272 272 272 270 268 267 268 269 270 269 266 264 265 268 270 272 273 273 272 272 275 277 277 276 274 273 272 272 272 273
234 234 234 234 233 234 235 235 236 236 236 237 237 238 238 238 238 238 238 239 239 239 240 240 241 241 241 241 242 243 243 243 244 245 246 247 248 250 251 252 253 254 255 257 258 259 260 261 263 264 265 265 266 267 269 270 271 271 271 271 270 270 269 268 266 266 267 268 268 268 268 268 269 271 272 272 271 273 275 276 278 278 277 275 274 274 273 273
234 235 235 235 234 234 234 235 236 237 237 237 238 238 238 239 239 239 239 240 241 241 242 242 242 243 243 243 244 245 245 245 246 246 247 248 249 250 251 252 253 254 255 256 257 258 259 260 261 263 264 265 266 267 269 269 270 271 270 270 270 270 269 269 267 265 263 263 265 268 269 268 268 270 272 271 271 272 274 275 277 278 278 277 276 274 274 274
234 235 235 236 236 235 235 235 236 237 237 238 238 239 239 239 240 240 240 240 241 242 243 243 244 244 244 245 245 246 247 247 247 248 248 249 250 251 252 253 254 254 255 256 257 258 259 260 261 262 264 266 267 268 269 269 269 270 271 271 271 271 270 269 268 265 262 262 264 266 268 267 266 268 270 270 270 271 272 273 275 276 278 279 278 276 274 274
235 235 235 236 236 236 236 236 236 237 237 238 239 240 240 240 240 241 241 241 242 242 243 244 245 245 246 247 247 247 248 248 249 249 249 250 250 251 252 253 254 255 256 257 258 258 260 260 261 262 264 266 267 268 268 269 269 269 270 271 271 272 272 270 268 265 263 264 264 265 268 269 267 267 268 269 270 270 270 271 272 274 276 277 278 277 277 277
234 235 235 236 236 237 237 237 237 237 238 238 239 240 240 240 241 241 241 242 242 243 243 244 245 246 247 248 248 249 250 250 250 250 250 251 251 252 252 253 254 256 257 258 259 259 259 260 260 261 262 264 265 266 267 268 269 269 269 270 271 272 272 270 268 266 266 266 265 265 266 269 268 266 267 269 270 270 271 271 272 273 274 275 276 277 278 279
234 235 235 236 236 237 237 238 238 238 239 239 239 240 240 241 241 241 242 242 243 243 244 244 245 246 247 248 248 249 250 250 250 250 251 252 252 252 253 253 254 255 257 258 259 260 260 260 260 261 262 263 264 265 266 267 268 268 269 270 271 271 270 269 269 268 268 267 267 266 265 268 268 266 266 268 269 270 271 272 272 273 273 273 274 276 277 277
235 235 235 235 236 236 237 237 238 239 239 240 240 240 241 241 241 241 242 242 243 243 244 244 245 245 246 247 248 249 249 249 250 250 251 252 252 253 253 254 254 255 256 257 258 259 260 260 261 261 262 263 264 265 265 266 267 268 270 270 270 269 269 270 270 269 269 268 268 267 266 267 269 269 267 267 268 270 271 271 271 270 270 271 273 274 275 276
235 235 236 236 236 236 237 237 238 238 239 240 240 241 241 241 242 242 242 242 243 243 244 245 245 246 246 248 248 248 248 249 249 250 251 252 252 254 254 255 255 255 256 257 258 258 259 260 260 261 262 263 263 263 264 265 267 268 269 269 268 269 270 270 270 270 269 269 268 268 266 266 268 270 269 268 269 270 271 271 271 270 270 271 271 272 273 274
236 236 236 236 236 236 236 237 238 238 239 240 240 241 241 241 242 242 243 243 243 244 244 245 245 245 245 246 246 247 248 249 249 250 251 252 252 253 254 255 256 256 257 257 258 258 259 259 260 261 261 260 260 261 263 265 267 268 267 268 268 269 270 271 270 270 271 271 270 268 266 267 268 268 268 269 269 269 269 270 271 272 272 272 271 272 274 275
235 235 236 236 237 236 236 236 237 238 239 239 240 241 241 242 242 242 243 243 244 244 243 243 243 243 243 244 246 247 248 249 250 250 251 252 252 253 254 255 256 256 257 257 258 258 259 259 260 260 259 259 260 262 263 264 265 266 267 268 269 270 271 270 270 271 272 271 271 269 267 267 268 267 266 267 268 267 266 267 269 271 272 272 273 274 274 275
234 235 236 237 237 237 237 236 236 237 238 239 240 241 241 242 242 242 242 242 242 242 241 241 242 243 243 245 246 248 248 249 249 250 250 251 252 252 253 255 256 256 257 257 257 257 257 258 259 259 258 259 261 263 264 264 265 266 267 269 270 271 271 271 271 272 271 271 272 270 268 268 269 269 267 266 266 266 265 266 266 267 269 271 273 274 274 275
233 235 237 237 237 237 237 237 237 237 238 239 240 240 241 242 243 242 242 241 241 240 240 240 241 243 244 245 246 247 248 248 248 249 249 250 250 251 252 253 254 255 255 255 255 255 256 256 257 257 258 260 262 263 263 264 265 267 269 269 270 271 271 271 271 271 270 270 271 271 270 270 270 271 271 268 266 266 266 266 266 266 267 269 271 272 273 274
231 233 235 235 235 236 237 238 238 238 238 239 240 240 241 242 242 242 242 242 242 241 240 240 240 242 243 244 246 247 247 248 248 248 249 249 250 251 251 252 253 253 253 254 254 254 255 255 255 257 258 261 262 263 264 266 268 269 269 269 270 270 269 270 271 270 270 269 269 271 272 272 273 274 274 271 268 266 266 267 267 267 268 269 271 272 273 274
229 230 232 233 233 233 235 237 238 238 238 239 240 240 240 241 242 242 242 242 242 242 242 241 241 241 242 244 246 247 248 248 249 249 249 250 250 250 251 251 251 251 252 254 254 254 254 255 256 258 259 261 263 264 266 268 269 269 270 270 270 270 269 270 271 271 271 270 271 272 272 274 276 276 276 274 271 269 268 268 268 269 270 270 271 272 273 274
226 229 230 232 232 232 233 235 237 238 239 239 239 240 240 240 241 242 242 242 242 243 243 242 242 242 243 244 245 247 248 249 249 250 250 249 249 249 249 250 251 252 253 253 253 254 254 255 257 260 261 262 264 265 267 268 269 270 270 271 270 269 269 269 270 272 273 274 274 273 273 276 277 277 276 275 275 275 273 272 271 272 272 273 272 272 273 273
225 227 229 231 233 233 233 234 236 238 238 237 237 239 239 240 241 241 242 242 241 242 243 243 243 243 243 244 245 248 248 248 250 250 250 249 249 249 249 250 251 252 253 253 253 254 256 257 258 260 262 263 264 266 268 269 269 269 270 271 269 269 269 270 271 273 275 277 277 275 276 277 276 276 275 276 279 279 277 275 275 275 275 275 274 274 274 274
226 226 227 229 231 233 234 234 235 236 237 237 236 237 238 239 240 241 242 242 240 241 244 244 244 244 245 246 247 248 247 248 250 251 250 250 250 250 249 250 251 251 252 253 253 254 256 258 258 259 261 263 266 268 268 267 266 267 268 268 267 268 270 272 274 275 276 277 277 280 281 275 272 275 274 277 282 280 277 277 276 276 275 275 276 276 276 277
228 227 227 227 229 231 233 234 235 236 238 238 237 237 237 238 239 240 241 241 240 240 244 245 245 245 246 247 247 248 248 249 251 252 251 251 251 251 250 251 251 252 253 253 253 253 255 257 258 259 261 263 265 265 264 263 264 265 265 266 268 269 271 273 275 276 277 277 280 284 283 276 271 273 276 281 282 276 276 277 277 277 276 276 276 277 277 277
230 230 229 228 228 228 230 232 234 236 237 238 238 237 237 238 239 239 241 241 239 239 243 246 246 245 246 247 248 249 250 250 251 253 253 252 252 252 252 252 252 252 252 253 253 252 252 255 258 260 260 261 262 261 261 263 264 264 264 266 269 270 272 273 274 276 277 279 285 286 281 276 274 277 282 283 278 274 276 278 277 277 277 277 278 278 278 278
231 232 232 231 230 229 228 229 232 234 236 236 237 237 238 238 239 240 241 240 238 237 242 245 247 246 245 247 248 249 249 249 250 252 253 253 252 251 251 251 251 251 253 254 253 252 252 254 256 258 259 260 260 260 262 264 265 265 265 266 268 270 271 272 274 277 278 282 286 281 276 276 277 283 285 276 269 271 276 278 279 279 280 280 280 279 279 279
231 232 232 233 233 233 231 230 230 232 234 235 236 236 237 238 239 240 241 241 239 237 240 243 245 246 246 246 247 248 249 248 248 250 251 252 252 251 251 251 251 252 253 254 254 254 254 254 255 256 258 259 260 261 263 264 265 266 266 266 267 268 270 273 276 279 280 282 280 275 274 277 281 286 279 268 265 269 273 276 278 280 282 282 282 281 280 279
232 232 233 233 234 235 234 233 232 233 234 234 235 236 237 237 238 240 241 242 240 238 238 240 242 244 246 246 246 246 247 246 247 248 249 250 251 251 251 251 251 252 252 253 254 254 254 253 254 255 257 258 260 262 263 264 264 265 265 266 267 270 273 276 278 278 279 279 275 273 274 278 282 281 270 266 267 269 273 276 278 280 282 283 283 282 280 280
232 233 234 234 234 235 236 236 236 236 236 236 236 236 237 237 238 239 241 241 241 240 240 240 241 243 245 245 245 245 246 246 247 248 248 249 249 250 251 251 252 253 253 254 254 254 254 254 254 255 256 258 259 260 261 263 264 265 266 269 271 273 274 275 277 276 277 275 273 272 274 278 282 279 271 267 267 268 273 277 279 281 283 284 284 283 282 282
232 233 234 234 235 235 236 236 237 238 239 239 238 238 238 238 239 240 240 241 243 242 240 241 240 241 242 243 245 246 246 247 247 248 249 249 250 250 251 252 253 254 255 254 254 254 254 254 255 255 255 256 258 259 261 262 264 266 270 272 273 274 275 275 274 273 273 274 273 273 274 279 281 276 273 272 271 272 273 275 278 280 281 282 283 283 283 284
232 233 234 234 234 234 235 236 237 238 239 240 240 240 241 241 242 242 242 244 246 245 242 242 242 241 241 242 243 245 246 247 247 247 248 249 250 250 251 252 252 253 253 253 254 255 255 255 256 256 256 257 258 260 261 263 266 269 271 273 275 276 275 272 270 272 274 274 274 275 277 281 279 275 274 275 275 275 274 275 277 279 281 281 281 281 282 283
232 233 234 234 234 234 235 236 237 238 239 240 241 241 242 243 244 245 245 247 249 249 247 245 245 244 244 243 243 245 246 247 248 248 249 250 250 251 251 252 253 253 254 255 256 257 257 257 257 257 258 259 260 262 264 266 268 270 271 273 275 273 271 271 273 276 276 274 274 276 279 281 278 275 276 274 273 274 276 279 281 281 281 280 280 281 281 281
232 233 234 234 234 235 235 236 237 238 239 240 241 242 243 244 245 246 246 247 249 249 247 246 246 246 246 245 244 244 245 247 247 248 249 250 250 251 251 253 254 255 257 258 259 259 259 259 258 259 261 262 263 264 266 267 269 271 273 273 272 269 270 273 276 276 275 275 275 276 279 280 278 277 276 273 273 275 278 280 281 281 281 280 280 280 280 280
232 233 233 234 234 235 236 236 236 238 239 240 241 242 244 245 245 245 245 244 245 247 247 246 246 247 247 247 246 245 244 245 246 247 248 249 250 251 253 254 255 257 258 259 260 260 260 261 261 262 263 264 265 265 267 269 271 272 273 271 269 269 272 274 274 274 274 275 276 277 279 279 278 277 276 275 278 280 280 280 280 280 280 280 280 280 280 281
232 233 233 233 233 235 236 236 236 237 239 240 241 242 243 244 245 246 246 244 242 244 246 247 247 248 249 250 250 249 248 247 247 248 250 251 253 254 255 256 257 258 258 259 260 261 261 261 261 262 263 264 265 266 268 270 272 271 270 269 270 271 273 273 274 275 275 275 275 276 277 277 276 277 277 279 283 283 282 282 282 282 282 282 282 282 282 282
232 233 233 232 233 234 236 237 237 237 238 240 242 242 243 244 244 246 247 244 242 242 245 246 247 248 248 249 250 249 250 250 249 250 251 253 254 255 255 256 257 258 259 260 260 261 261 261 261 262 262 263 265 267 268 269 268 268 268 269 271 273 273 273 275 276 275 275 275 274 273 273 275 278 280 283 284 282 281 282 281 282 284 285 285 284 284 283
232 232 232 232 233 234 235 237 238 238 238 240 242 242 242 243 243 244 246 245 242 242 244 245 246 247 247 248 249 249 250 251 251 251 252 254 255 255 255 257 258 259 259 259 259 260 261 263 263 262 261 262 264 265 265 264 265 267 269 270 272 273 272 273 274 275 275 274 273 271 271 275 279 279 281 284 283 280 280 280 280 282 284 285 285 285 284 284
232 232 231 231 233 234 235 236 238 238 238 239 241 242 242 241 241 243 245 245 243 242 243 244 245 247 247 248 249 250 251 251 251 251 252 253 254 253 253 253 254 254 255 257 259 261 262 263 263 262 263 264 264 263 263 264 266 268 269 270 270 270 271 273 273 273 272 270 271 272 275 280 280 277 280 282 280 278 278 279 280 283 284 285 285 285 284 283
234 233 231 231 232 234 235 236 237 238 239 238 239 240 240 239 240 242 244 245 244 242 243 245 246 247 248 248 249 250 251 252 252 251 251 252 253 252 250 249 249 251 253 257 260 262 263 264 265 266 267 266 265 264 264 264 265 266 267 269 270 271 271 271 270 268 268 270 273 276 278 280 278 278 281 279 274 274 276 278 281 283 284 285 285 284 284 283
235 235 233 231 231 233 235 236 236 237 239 239 238 238 238 237 238 239 241 243 243 243 243 245 246 247 248 248 248 249 249 250 251 251 251 251 251 251 250 250 250 251 253 256 260 262 263 265 266 266 266 265 265 265 265 266 267 268 270 271 270 269 268 267 266 267 269 272 275 276 279 282 278 276 276 273 272 274 275 277 279 281 282 284 284 283 284 284
234 235 235 234 232 233 234 236 237 237 239 239 238 238 238 237 238 239 240 241 242 243 244 245 246 247 248 248 248 248 248 249 250 250 250 250 250 250 250 251 252 253 255 257 259 260 262 263 265 265 266 266 267 269 271 272 271 270 268 267 266 265 265 266 269 270 271 274 276 277 280 281 275 272 272 273 274 274 274 276 278 279 280 280 281 283 285 286
234 235 235 235 235 234 234 236 237 238 238 239 239 238 238 238 238 239 240 240 241 241 243 244 245 247 248 248 248 247 248 249 250 250 249 250 250 250 250 252 253 255 257 258 259 260 262 264 265 266 267 269 270 271 272 270 267 266 266 266 266 266 267 269 270 272 274 276 276 277 279 278 274 273 274 275 274 274 275 277 278 278 277 278 280 283 284 285
234 235 235 235 236 236 236 236 237 238 238 239 240 240 239 240 240 240 240 240 240 242 243 243 244 245 246 247 248 248 248 250 251 250 249 250 250 251 252 253 254 255 257 257 258 260 261 263 265 266 268 269 270 269 268 266 265 267 268 268 269 269 270 271 272 274 277 277 275 277 279 276 275 276 277 277 277 276 276 276 276 276 277 279 281 281 282 282
234 235 235 235 236 237 238 237 237 238 239 240 241 241 241 241 241 241 241 241 242 243 244 244 244 245 246 247 249 249 249 250 250 249 249 249 249 250 252 253 255 256 258 259 259 259 260 261 264 266 267 268 269 268 268 267 267 268 268 268 269 270 271 272 275 277 278 276 276 278 278 276 278 279 278 278 276 275 274 274 275 278 280 281 281 280 280 279
236 235 236 236 237 237 238 238 239 240 240 240 241 241 242 242 242 242 243 244 245 245 245 245 245 246 247 248 249 250 249 249 249 248 248 249 248 249 249 251 253 255 256 258 259 259 260 261 263 264 266 267 267 267 268 268 267 267 267 268 269 270 271 272 275 276 276 276 279 279 278 278 280 279 278 277 275 274 274 276 279 282 283 282 281 280 279 278
237 237 236 237 238 238 238 238 239 240 241 241 241 242 242 243 244 244 245 245 247 247 247 247 246 247 248 249 249 249 249 250 250 250 249 249 248 248 248 249 250 252 254 255 257 258 259 260 261 263 264 265 264 264 265 266 266 266 266 267 268 269 270 272 274 275 276 278 280 279 276 277 278 277 277 275 274 275 277 280 283 283 283 282 281 279 278 276
237 237 237 237 238 239 239 239 239 240 241 242 243 244 244 245 245 246 247 248 248 249 249 249 248 248 247 248 249 249 249 250 251 251 250 249 248 248 248 248 249 251 252 254 255 257 258 260 260 261 262 263 264 264 265 265 266 265 265 265 267 270 273 275 275 275 275 277 278 275 274 276 277 275 273 273 275 278 281 283 283 282 282 282 280 278 276 273
238 238 238 238 238 239 239 240 240 241 241 242 243 245 246 247 247 248 249 249 249 249 249 249 248 247 247 246 247 248 249 249 250 250 250 250 249 248 248 248 248 250 252 253 255 257 258 259 260 261 262 262 263 264 265 266 266 265 264 266 270 273 274 274 274 274 275 277 276 274 275 277 274 271 271 275 277 279 280 282 282 281 280 279 277 276 274 272
238 238 238 238 238 238 239 239 240 240 241 241 242 244 245 246 247 248 248 249 250 250 250 250 249 248 248 247 248 248 249 249 249 249 249 249 248 248 248 248 248 249 252 254 255 256 257 259 260 260 261 262 262 263 265 266 265 265 266 269 272 272 272 273 273 274 275 275 274 274 275 275 271 271 273 275 276 277 279 280 279 277 276 275 274 273 271 270
Height
10744 10746 10749 10751 10754 10756 10758 10759 10761 10763 10765 10767 10768 10770 10772 10774 10776 10778 10779 10781 10782 10784 10786 10787 10789 10791 10792 10794 10795 10797 10798 10799 10800 10801 10802 10803 10804 10805 10805 10806 10807 10808 10809 10809 10810 10810 10811 10812 10812 10812 10813 10813 10813 10813 10813 10813 10814 10813 10813 10813 10813 10813 10813 10813 10813 10814 10814 10814 10813 10814 10813 10811 10810 10811 10813 10815 10815 10815 10814 10814 10814 10814 10813 10813 10813 10813 10812 10812
10739 10741 10744 10747 10749 10751 10753 10755 10757 10759 10761 10763 10765 10767 10769 10771 10773 10774 10776 10777 10779 10781 10782 10784 10786 10787 10789 10790 10792 10793 10794 10795 10796 10798 10798 10800 10801 10801 10802 10803 10804 10805 10806 10806 10807 10808 10809 10809 10810 10810 10810 10810 10810 10810 10810 10810 10811 10811 10811 10812 10811 10811 10810 10810 10810 10811 10812 10811 10811 10812 10811 10810 10808 10808 10810 10812 10813 10813 10813 10812 10812 10812 10811 10811 10811 10811 10811 10811
10734 10736 10739 10742 10744 10746 10748 10751 10752 10754 10756 10759 10761 10763 10765 10767 10769 10771 10773 10774 10776 10778 10779 10781 10783 10784 10786 10787 10788 10790 10790 10791 10793 10794 10795 10796 10797 10798 10799 10800 10801 10802 10803 10803 10804 10804 10806 10806 10807 10807 10808 10807 10808 10808 10807 10808 10808 10808 10809 10810 10810 10809 10809 10808 10808 10808 10809 10809 10809 10809 10809 10808 10806 10806 10807 10809 10811 10811 10810 10810 10810 10810 10809 10809 10809 10809 10808 10808
10729 10731 10734 10736 10739 10741 10744 10746 10748 10750 10752 10754 10757 10759 10761 10763 10765 10767 10769 10771 10772 10774 10776 10777 10779 10781 10782 10783 10784 10786 10787 10788 10790 10791 10792 10793 10794 10795 10796 10797 10798 10799 10800 10800 10801 10801 10803 10804 10804 10804 10805 10805 10805 10805 10805 10805 10805 10805 10806 10807 10808 10808 10807 10806 10806 10806 10806 10806 10806 10807 10807 10806 10805 10804 10804 10806 10808 10808 10808 10808 10808 10808 10808 10807 10806 10807 10807 10806
10724 10727 10729 10731 10734 10736 10738 10741 10743 10745 10748 10750 10752 10754 10757 10760 10762 10764 10765 10767 10768 10770 10772 10774 10775 10777 10778 10779 10781 10782 10784 10785 10786 10788 10789 10790 10791 10792 10793 10794 10795 10796 10797 10797 10798 10799 10800 10801 10801 10801 10802 10802 10802 10802 10802 10802 10802 10802 10803 10805 10805 10805 10805 10804 10805 10805 10805 10804 10803 10804 10804 10804 10803 10802 10802 10803 10805 10805 10804 10805 10806 10807 10806 10805 10804 10803 10804 10804
10720 10722 10725 10727 10729 10731 10734 10736 10738 10740 10743 10745 10748 10750 10753 10755 10758 10760 10761 10763 10764 10766 10768 10769 10771 10773 10774 10775 10777 10779 10781 10781 10783 10785 10786 10787 10788 10789 10790 10791 10792 10793 10794 10794 10795 10796 10797 10797 10797 10798 10799 10799 10799 10799 10799 10799 10800 10800 10801 10802 10802 10802 10802 10802 10803 10803 10803 10802 10801 10801 10801 10801 10801 10801 10801 10802 10802 10801 10800 10801 10804 10805 10804 10803 10802 10801 10801 10801
10715 10717 10720 10723 10725 10727 10729 10731 10734 10736 10738 10741 10743 10746 10748 10751 10754 10755 10757 10759 10760 10762 10764 10766 10767 10769 10771 10772 10773 10775 10777 10778 10779 10781 10782 10783 10785 10786 10787 10788 10789 10790 10791 10791 10792 10793 10793 10794 10794 10794 10796 10796 10796 10796 10796 10796 10797 10797 10798 10799 10799 10799 10799 10799 10800 10801 10801 10801 10800 10799 10798 10798 10797 10798 10800 10801 10800 10797 10796 10798 10800 10801 10801 10801 10800 10799 10798 10798
10709 10712 10715 10718 10720 10723 10725 10727 10729 10731 10734 10736 10738 10741 10744 10747 10749 10751 10753 10755 10756 10758 10760 10762 10764 10766 10767 10768 10770 10772 10774 10775 10776 10778 10778 10780 10781 10783 10784 10784 10786 10787 10787 10788 10789 10790 10790 10791 10791 10791 10792 10793 10794 10793 10793 10794 10794 10794 10795 10795 10796 10796 10796 10797 10797 10798 10798 10798 10798 10797 10797 10795 10794 10795 10797 10798 10797 10794 10793 10795 10796 10798 10798 10798 10798 10798 10797 10796
10704 10707 10710 10713 10715 10718 10720 10723 10725 10727 10729 10731 10734 10737 10739 10742 10745 10747 10749 10751 10752 10754 10756 10758 10760 10762 10763 10765 10766 10768 10770 10771 10773 10774 10775 10776 10778 10779 10780 10781 10782 10783 10784 10785 10786 10787 10787 10787 10787 10788 10789 10790 10791 10791 10790 10791 10791 10791 10792 10792 10793 10793 10794 10795 10795 10795 10794 10793 10794 10795 10795 10794 10792 10792 10794 10796 10794 10791 10792 10791 10792 10794 10794 10795 10795 10795 10795 10794
10699 10702 10705 10707 10710 10713 10715 10718 10720 10722 10724 10727 10729 10732 10735 10738 10740 10742 10744 10746 10748 10750 10752 10754 10756 10757 10760 10762 10763 10764 10766 10767 10769 10770 10772 10773 10774 10775 10776 10778 10779 10780 10781 10782 10782 10783 10784 10784 10784 10784 10785 10785 10787 10788 10787 10787 10787 10788 10789 10789 10790 10790 10791 10792 10793 10793 10791 10789 10789 10791 10793 10791 10790 10790 10791 10792 10791 10790 10790 10789 10789 10789 10790 10791 10792 10792 10792 10792
10694 10696 10699 10702 10704 10707 10710 10713 10715 10717 10720 10722 10724 10727 10730 10733 10735 10737 10740 10741 10743 10745 10747 10749 10751 10753 10755 10758 10759 10760 10761 10764 10765 10766 10768 10769 10771 10772 10773 10774 10775 10776 10777 10778 10779 10780 10780 10781 10781 10781 10781 10781 10783 10784 10784 10784 10784 10784 10785 10785 10786 10787 10788 10789 10789 10790 10788 10787 10787 10789 10790 10788 10787 10788 10788 10789 10788 10787 10787 10786 10786 10785 10786 10787 10788 10788 10788 10788
10687 10690 10693 10696 10699 10701 10704 10707 10709 10712 10714 10717 10719 10722 10725 10727 10730 10732 10734 10736 10738 10740 10742 10744 10746 10748 10751 10753 10755 10756 10757 10760 10761 10762 10764 10765 10767 10768 10769 10770 10771 10772 10773 10774 10775 10775 10776 10777 10777 10777 10777 10777 10778 10779 10779 10780 10780 10780 10780 10781 10782 10783 10784 10785 10785 10784 10784 10785 10786 10788 10787 10783 10785 10786 10784 10785 10785 10784 10784 10783 10783 10782 10782 10782 10783 10784 10785 10785
10682 10684 10687 10690 10693 10695 10698 10701 10703 10706 10709 10712 10714 10716 10719 10722 10724 10727 10729 10731 10732 10734 10736 10739 10741 10744 10746 10748 10750 10752 10753 10755 10756 10758 10760 10761 10763 10764 10765 10766 10767 10768 10769 10770 10770 10771 10773 10773 10774 10774 10773 10773 10773 10774 10774 10775 10776 10776 10777 10777 10779 10780 10780 10780 10780 10779 10780 10782 10783 10785 10784 10779 10781 10784 10781 10781 10781 10780 10780 10780 10780 10780 10779 10778 10778 10779 10780 10781
10675 10678 10681 10684 10686 10689 10692 10695 10697 10700 10703 10706 10708 10711 10714 10716 10718 10721 10723 10725 10727 10730 10732 10734 10736 10739 10741 10742 10744 10747 10748 10749 10751 10753 10755 10757 10758 10759 10760 10761 10762 10764 10764 10765 10766 10767 10768 10768 10770 10770 10769 10769 10769 10769 10769 10769 10770 10772 10773 10774 10775 10776 10775 10774 10774 10775 10777 10779 10780 10782 10782 10775 10775 10780 10778 10777 10776 10775 10776 10776 10776 10777 10776 10775 10774 10775 10776 10776
10668 10672 10674 10677 10680 10683 10686 10689 10691 10694 10697 10700 10702 10705 10707 10710 10712 10715 10717 10720 10722 10724 10727 10729 10731 10734 10736 10737 10739 10742 10743 10744 10745 10748 10750 10751 10753 10754 10755 10757 10758 10759 10760 10761 10761 10762 10763 10764 10765 10765 10765 10765 10764 10764 10764 10764 10765 10767 10769 10771 10772 10771 10769 10768 10769 10771 10773 10775 10776 10778 10779 10772 10770 10776 10776 10774 10772 10771 10771 10772 10773 10773 10771 10771 10771 10772 10772 10772
10661 10664 10668 10671 10674 10677 10679 10682 10685 10688 10691 10693 10696 10699 10701 10704 10706 10709 10711 10713 10716 10719 10722 10724 10726 10729 10731 10732 10734 10737 10736 10737 10740 10743 10745 10746 10747 10748 10750 10752 10753 10753 10754 10755 10756 10757 10758 10758 10760 10760 10761 10760 10759 10758 10757 10759 10760 10762 10766 10767 10766 10765 10764 10764 10765 10767 10768 10771 10772 10773 10775 10769 10766 10770 10772 10770 10769 10768 10767 10767 10767 10767 10767 10767 10768 10768 10768 10768
10654 10657 10661 10664 10667 10670 10673 10676 10679 10682 10685 10687 10690 10693 10695 10698 10700 10703 10705 10708 10711 10714 10716 10719 10721 10724 10727 10727 10728 10729 10729 10732 10736 10738 10739 10741 10742 10743 10745 10746 10747 10748 10749 10750 10751 10752 10753 10754 10755 10755 10756 10755 10752 10750 10752 10755 10756 10759 10762 10761 10760 10760 10760 10759 10759 10761 10764 10767 10768 10769 10770 10766 10763 10766 10766 10766 10767 10765 10762 10762 10761 10761 10762 10763 10764 10764 10764 10764
10647 10650 10654 10657 10660 10663 10666 10669 10672 10675 10678 10680 10683 10686 10689 10692 10694 10697 10700 10702 10706 10708 10711 10714 10715 10718 10721 10720 10720 10721 10724 10728 10731 10733 10735 10736 10737 10739 10740 10741 10742 10743 10744 10745 10745 10746 10748 10749 10750 10751 10749 10746 10743 10744 10749 10751 10751 10754 10755 10754 10755 10755 10755 10754 10753 10756 10760 10763 10764 10765 10766 10762 10760 10761 10762 10762 10763 10761 10757 10756 10755 10755 10757 10758 10759 10759 10760 10760
10639 10643 10647 10650 10653 10656 10659 10663 10665 10669 10672 10674 10677 10680 10683 10686 10688 10691 10694 10697 10700 10702 10704 10705 10706 10710 10713 10712 10713 10717 10720 10724 10727 10728 10730 10731 10733 10734 10735 10736 10737 10738 10739 10740 10740 10742 10743 10744 10745 10745 10741 10737 10737 10742 10746 10746 10747 10749 10749 10750 10750 10750 10750 10748 10747 10752 10755 10758 10759 10759 10762 10760 10756 10756 10758 10759 10758 10755 10752 10751 10751 10750 10751 10752 10754 10755 10755 10756
10632 10635 10639 10643 10646 10649 10652 10655 10658 10662 10664 10667 10671 10673 10677 10679 10682 10684 10687 10690 10692 10692 10694 10697 10699 10704 10708 10708 10710 10713 10715 10719 10721 10722 10725 10727 10728 10729 10730 10731 10732 10733 10734 10734 10736 10737 10737 10740 10741 10736 10731 10731 10735 10739 10741 10740 10741 10743 10745 10745 10745 10745 10744 10741 10743 10747 10749 10754 10754 10752 10757 10757 10751 10750 10752 10755 10753 10749 10746 10746 10746 10746 10747 10748 10749 10750 10750 10752
10624 10628 10632 10635 10639 10642 10644 10647 10651 10655 10658 10661 10664 10667 10670 10672 10673 10676 10678 10680 10682 10683 10687 10690 10694 10700 10703 10704 10705 10707 10710 10713 10715 10717 10719 10721 10722 10724 10725 10726 10727 10727 10727 10728 10730 10731 10732 10736 10733 10727 10725 10728 10732 10734 10734 10734 10736 10739 10740 10740 10741 10740 10738 10735 10738 10741 10743 10749 10750 10747 10752 10753 10748 10746 10746 10747 10747 10743 10740 10740 10740 10741 10743 10744 10744 10745 10746 10747
10615 10620 10624 10627 10631 10634 10637 10640 10644 10648 10651 10655 10658 10660 10662 10662 10664 10667 10669 10672 10674 10677 10681 10685 10690 10695 10697 10698 10700 10701 10704 10707 10709 10711 10713 10715 10717 10718 10720 10721 10721 10720 10721 10723 10724 10724 10727 10730 10725 10720 10723 10726 10727 10728 10729 10730 10732 10734 10735 10735 10736 10734 10732 10731 10732 10735 10738 10744 10745 10743 10747 10749 10744 10743 10740 10738 10739 10737 10735 10734 10734 10736 10739 10740 10739 10740 10741 10741
10606 10611 10615 10619 10623 10625 10629 10632 10637 10641 10645 10648 10650 10650 10651 10653 10656 10658 10660 10664 10667 10670 10676 10681 10685 10688 10691 10694 10695 10696 10699 10701 10703 10706 10707 10710 10711 10712 10714 10714 10713 10714 10717 10718 10717 10719 10722 10722 10718 10717 10719 10721 10721 10723 10725 10726 10727 10727 10728 10730 10730 10726 10726 10728 10727 10729 10733 10738 10741 10740 10743 10746 10741 10738 10735 10730 10731 10732 10729 10729 10729 10730 10733 10735 10735 10735 10735 10736
10597 10602 10606 10611 10613 10617 10621 10624 10631 10636 10637 10640 10640 10639 10641 10645 10648 10650 10651 10655 10660 10665 10670 10674 10679 10685 10687 10688 10689 10692 10694 10696 10698 10700 10701 10703 10703 10704 10707 10706 10707 10711 10712 10710 10710 10713 10717 10716 10714 10714 10714 10715 10716 10718 10719 10721 10721 10721 10722 10724 10723 10720 10721 10725 10724 10725 10729 10733 10735 10735 10740 10744 10737 10733 10730 10723 10725 10726 10721 10723 10725 10726 10729 10730 10730 10730 10730 10730
10588 10592 10597 10602 10605 10609 10612 10618 10627 10629 10627 10629 10628 10628 10633 10638 10639 10641 10642 10645 10654 10660 10663 10668 10676 10681 10680 10680 10686 10688 10688 10691 10693 10693 10694 10695 10695 10697 10700 10700 10703 10706 10704 10701 10703 10709 10712 10711 10710 10709 10707 10709 10711 10713 10714 10714 10714 10714 10717 10717 10715 10714 10716 10719 10720 10722 10726 10728 10728 10729 10737 10742 10734 10728 10725 10718 10721 10719 10712 10715 10720 10720 10724 10724 10724 10724 10724 10724
10579 10583 10589 10592 10597 10601 10605 10616 10620 10616 10616 10617 10616 10620 10626 10630 10630 10632 10633 10635 10647 10657 10658 10663 10670 10675 10675 10678 10683 10680 10680 10688 10688 10685 10687 10688 10688 10690 10692 10695 10697 10698 10695 10693 10698 10707 10709 10704 10702 10703 10702 10703 10707 10709 10707 10704 10705 10710 10712 10709 10707 10710 10711 10713 10716 10718 10722 10724 10724 10724 10730 10736 10733 10725 10720 10718 10719 10711 10702 10707 10713 10714 10717 10718 10718 10718 10718 10718
10572 10576 10579 10583 10588 10592 10600 10609 10607 10606 10608 10604 10607 10614 10617 10620 10620 10623 10622 10623 10642 10657 10654 10657 10665 10671 10672 10673 10674 10671 10677 10687 10681 10676 10680 10680 10681 10683 10686 10689 10690 10690 10687 10685 10694 10704 10703 10695 10694 10697 10698 10699 10702 10701 10696 10693 10699 10706 10706 10701 10700 10704 10707 10708 10710 10713 10716 10719 10722 10723 10719 10724 10731 10724 10718 10720 10716 10703 10695 10700 10706 10707 10710 10713 10713 10713 10712 10712
10565 10568 10571 10575 10578 10582 10592 10597 10597 10599 10596 10593 10601 10606 10607 10610 10610 10612 10610 10613 10640 10656 10651 10653 10660 10665 10667 10665 10666 10667 10674 10680 10673 10671 10674 10672 10674 10676 10680 10683 10682 10681 10678 10680 10690 10696 10693 10690 10690 10691 10693 10695 10695 10690 10687 10688 10694 10699 10699 10696 10696 10698 10701 10703 10704 10707 10711 10715 10721 10720 10709 10711 10725 10724 10719 10718 10710 10696 10691 10693 10698 10701 10704 10707 10708 10708 10707 10706
10557 10560 10564 10567 10568 10574 10583 10588 10591 10588 10583 10588 10594 10595 10599 10600 10600 10601 10597 10608 10641 10654 10649 10650 10653 10657 10661 10660 10660 10662 10668 10671 10667 10666 10664 10663 10667 10669 10672 10674 10672 10673 10673 10676 10684 10686 10686 10687 10685 10685 10687 10688 10685 10682 10682 10684 10687 10690 10692 10692 10691 10692 10694 10696 10699 10702 10705 10713 10718 10713 10701 10703 10719 10724 10716 10712 10704 10694 10688 10686 10690 10694 10697 10701 10702 10702 10701 10700
10548 10551 10555 10557 10562 10569 10576 10581 10581 10573 10574 10580 10581 10584 10588 10587 10590 10588 10586 10610 10641 10648 10645 10646 10645 10649 10653 10653 10655 10657 10659 10661 10660 10658 10655 10656 10660 10662 10665 10665 10665 10668 10669 10670 10676 10679 10680 10681 10679 10680 10680 10679 10677 10677 10679 10678 10680 10682 10684 10686 10685 10686 10688 10690 10696 10697 10699 10709 10711 10703 10696 10698 10714 10722 10711 10702 10699 10693 10688 10684 10686 10689 10691 10694 10696 10696 10694 10693
10539 10542 10544 10549 10557 10562 10568 10575 10571 10562 10565 10570 10570 10574 10575 10576 10579 10574 10585 10618 10634 10636 10640 10639 10638 10642 10644 10647 10648 10647 10649 10650 10651 10650 10650 10651 10651 10653 10657 10658 10659 10661 10661 10665 10670 10671 10671 10672 10673 10674 10673 10673 10672 10673 10672 10671 10672 10673 10675 10678 10679 10681 10685 10686 10691 10691 10692 10702 10702 10696 10693 10696 10709 10715 10705 10696 10692 10689 10686 10683 10683 10686 10688 10689 10689 10689 10687 10687
10531 10534 10537 10543 10550 10554 10562 10568 10562 10555 10557 10560 10561 10563 10564 10564 10562 10566 10594 10618 10619 10626 10635 10633 10635 10638 10635 10636 10637 10638 10640 10641 10643 10644 10644 10644 10644 10647 10650 10652 10653 10652 10656 10662 10662 10660 10662 10664 10666 10668 10668 10668 10666 10665 10665 10665 10665 10665 10668 10672 10674 10677 10680 10682 10685 10683 10685 10691 10693 10690 10689 10694 10704 10706 10697 10690 10685 10684 10685 10680 10678 10681 10684 10684 10683 10682 10680 10681
10522 10526 10528 10534 10541 10547 10554 10556 10552 10549 10549 10550 10553 10554 10550 10545 10550 10571 10598 10607 10608 10622 10629 10626 10629 10628 10623 10625 10628 10630 10632 10633 10636 10636 10636 10636 10638 10642 10645 10646 10647 10647 10651 10654 10650 10650 10654 10657 10659 10661 10662 10660 10658 10658 10658 10658 10658 10661 10665 10667 10669 10671 10673 10676 10676 10675 10679 10683 10684 10684 10686 10692 10699 10696 10688 10683 10677 10678 10679 10677 10675 10677 10679 10679 10678 10676 10675 10675
10512 10516 10519 10524 10531 10536 10540 10541 10542 10542 10540 10540 10541 10541 10535 10533 10551 10577 10594 10599 10603 10612 10617 10618 10619 10615 10614 10618 10620 10621 10621 10624 10627 10627 10627 10628 10631 10637 10640 10641 10642 10641 10642 10642 10641 10643 10645 10650 10653 10652 10652 10653 10652 10652 10652 10652 10653 10658 10662 10661 10664 10666 10663 10663 10666 10668 10674 10676 10677 10679 10682 10688 10691 10687 10682 10677 10672 10669 10668 10669 10671 10672 10673 10674 10673 10671 10670 10671
10501 10504 10508 10512 10518 10524 10528 10532 10534 10533 10530 10529 10528 10525 10522 10530 10554 10576 10590 10598 10599 10601 10607 10609 10605 10605 10607 10610 10612 10613 10612 10615 10618 10618 10619 10621 10626 10632 10634 10635 10635 10634 10634 10633 10635 10636 10636 10642 10645 10641 10643 10645 10646 10647 10647 10647 10649 10653 10656 10657 10660 10658 10650 10651 10659 10664 10666 10668 10672 10675 10677 10681 10681 10679 10677 10672 10667 10662 10659 10662 10664 10665 10667 10667 10666 10666 10665 10665
10488 10493 10496 10500 10510 10517 10520 10523 10526 10522 10519 10518 10513 10510 10515 10534 10558 10574 10584 10589 10587 10588 10593 10593 10592 10595 10599 10602 10605 10606 10605 10607 10608 10607 10610 10614 10618 10624 10627 10629 10629 10628 10629 10628 10627 10628 10627 10632 10636 10635 10636 10638 10639 10641 10641 10642 10644 10647 10651 10653 10651 10645 10642 10645 10652 10656 10656 10659 10667 10671 10672 10674 10671 10672 10671 10664 10661 10658 10655 10655 10655 10655 10658 10659 10659 10659 10658 10658
10478 10482 10484 10493 10505 10509 10509 10513 10514 10510 10506 10502 10499 10502 10515 10535 10552 10563 10570 10575 10574 10575 10578 10581 10584 10586 10590 10594 10597 10598 10598 10597 10597 10598 10602 10605 10609 10618 10623 10623 10622 10623 10624 10620 10616 10617 10619 10623 10629 10630 10631 10632 10632 10633 10634 10636 10639 10642 10645 10643 10638 10637 10640 10641 10643 10648 10648 10651 10661 10665 10666 10666 10664 10665 10663 10656 10655 10653 10649 10647 10646 10646 10649 10651 10652 10652 10652 10651
10468 10469 10472 10486 10496 10497 10498 10500 10499 10497 10493 10486 10484 10494 10510 10528 10545 10555 10559 10562 10564 10564 10567 10572 10576 10579 10584 10586 10589 10591 10588 10588 10591 10593 10595 10596 10603 10614 10618 10616 10616 10616 10615 10610 10606 10608 10611 10614 10621 10624 10626 10627 10626 10626 10630 10633 10633 10634 10634 10632 10630 10632 10636 10634 10634 10640 10641 10643 10652 10658 10659 10658 10658 10659 10657 10653 10652 10646 10641 10639 10638 10637 10639 10642 10645 10645 10645 10645
10455 10454 10463 10481 10486 10485 10488 10487 10484 10483 10478 10469 10470 10488 10508 10527 10545 10549 10544 10546 10551 10551 10555 10563 10568 10570 10574 10578 10581 10581 10579 10582 10586 10586 10587 10590 10598 10609 10611 10608 10608 10608 10604 10600 10597 10599 10600 10602 10611 10620 10620 10619 10620 10622 10626 10627 10624 10622 10624 10625 10626 10628 10630 10629 10628 10631 10633 10636 10642 10648 10651 10652 10653 10653 10651 10650 10647 10639 10633 10631 10629 10629 10631 10633 10635 10636 10637 10637
10441 10442 10458 10475 10475 10474 10477 10473 10466 10462 10460 10460 10466 10487 10509 10526 10538 10535 10526 10530 10537 10539 10545 10554 10557 10557 10563 10569 10571 10571 10572 10575 10578 10578 10580 10584 10592 10601 10604 10601 10601 10599 10593 10588 10587 10589 10591 10593 10602 10609 10610 10611 10616 10618 10619 10616 10614 10614 10617 10621 10623 10622 10621 10622 10622 10624 10625 10626 10630 10634 10641 10648 10650 10648 10646 10645 10640 10631 10624 10622 10620 10621 10623 10624 10625 10627 10628 10628
10428 10431 10452 10465 10460 10461 10462 10452 10445 10445 10451 10459 10468 10486 10506 10518 10524 10520 10514 10519 10524 10527 10535 10543 10544 10546 10552 10559 10562 10564 10565 10565 10569 10571 10573 10580 10587 10594 10597 10594 10591 10587 10580 10576 10579 10583 10584 10585 10588 10593 10600 10606 10609 10609 10608 10608 10609 10610 10612 10615 10617 10614 10613 10614 10616 10617 10614 10614 10618 10623 10634 10647 10646 10641 10643 10641 10634 10623 10616 10614 10613 10614 10615 10616 10616 10616 10617 10619
10413 10420 10443 10452 10446 10447 10444 10434 10435 10439 10443 10454 10469 10484 10495 10503 10507 10506 10507 10510 10511 10516 10526 10532 10536 10538 10542 10550 10555 10555 10554 10555 10559 10562 10568 10576 10582 10586 10588 10584 10579 10575 10571 10570 10575 10577 10574 10573 10577 10583 10592 10598 10597 10598 10600 10601 10603 10603 10605 10610 10610 10607 10607 10603 10603 10605 10602 10606 10614 10615 10626 10642 10640 10635 10637 10635 10627 10618 10611 10608 10608 10608 10608 10607 10606 10606 10606 10608
10401 10412 10430 10437 10433 10433 10427 10421 10427 10430 10433 10450 10467 10472 10476 10485 10491 10492 10496 10499 10500 10508 10516 10522 10527 10529 10532 10539 10541 10540 10542 10544 10547 10553 10562 10569 10575 10578 10577 10572 10570 10568 10566 10567 10571 10571 10564 10563 10568 10574 10579 10584 10585 10588 10592 10594 10596 10598 10601 10603 10600 10597 10595 10587 10588 10594 10596 10605 10611 10607 10618 10635 10634 10629 10628 10624 10620 10615 10607 10605 10604 10604 10603 10600 10597 10596 10596 10599
10395 10402 10413 10417 10417 10418 10412 10410 10419 10425 10431 10445 10455 10456 10462 10473 10479 10481 10487 10492 10496 10501 10504 10510 10517 10519 10521 10524 10524 10527 10531 10531 10535 10547 10555 10558 10566 10571 10566 10561 10562 10560 10561 10565 10565 10560 10553 10553 10558 10561 10566 10573 10577 10582 10588 10591 10589 10589 10589 10588 10587 10586 10581 10577 10581 10584 10590 10603 10604 10599 10613 10627 10623 10619 10619 10617 10615 10608 10600 10599 10600 10599 10599 10595 10590 10588 10589 10590
10383 10386 10394 10399 10400 10402 10403 10406 10412 10417 10424 10432 10436 10442 10451 10459 10465 10473 10480 10483 10485 10487 10491 10499 10506 10507 10506 10508 10511 10516 10520 10524 10531 10539 10544 10547 10556 10561 10557 10553 10554 10555 10557 10558 10555 10549 10545 10545 10549 10550 10555 10565 10572 10578 10583 10581 10574 10572 10576 10577 10577 10577 10573 10572 10574 10573 10584 10599 10594 10592 10609 10615 10610 10609 10611 10610 10607 10599 10593 10593 10592 10591 10590 10589 10587 10585 10584 10582
10366 10370 10379 10385 10387 10390 10396 10403 10403 10404 10412 10420 10423 10429 10438 10445 10455 10464 10467 10468 10472 10477 10482 10488 10492 10492 10492 10495 10501 10507 10515 10522 10525 10527 10533 10541 10548 10551 10548 10545 10546 10549 10549 10548 10545 10541 10537 10538 10542 10544 10547 10556 10564 10567 10568 10565 10560 10563 10569 10570 10568 10568 10565 10563 10564 10569 10581 10585 10582 10592 10601 10599 10600 10603 10600 10599 10595 10589 10586 10583 10581 10581 10583 10585 10584 10581 10579 10576
10351 10358 10367 10374 10377 10379 10386 10393 10393 10394 10404 10412 10412 10417 10427 10437 10446 10450 10450 10455 10465 10470 10472 10473 10476 10479 10483 10489 10496 10501 10509 10514 10512 10515 10525 10534 10538 10539 10538 10536 10538 10541 10542 10539 10535 10531 10528 10530 10536 10538 10539 10547 10553 10551 10550 10552 10553 10556 10559 10559 10559 10559 10555 10553 10558 10568 10571 10566 10575 10591 10587 10584 10596 10596 10587 10585 10582 10576 10575 10572 10571 10575 10577 10577 10577 10574 10572 10570
10336 10347 10357 10362 10363 10366 10373 10383 10386 10388 10396 10400 10399 10404 10415 10423 10431 10434 10437 10447 10456 10458 10457 10457 10463 10473 10480 10486 10489 10491 10495 10497 10499 10508 10518 10523 10526 10528 10528 10528 10529 10531 10532 10528 10523 10522 10520 10522 10529 10530 10529 10537 10542 10537 10536 10540 10542 10545 10547 10549 10551 10549 10546 10548 10556 10562 10558 10553 10570 10582 10572 10574 10590 10585 10574 10571 10566 10563 10564 10562 10564 10567 10567 10566 10565 10565 10564 10562
10321 10332 10344 10346 10346 10352 10363 10373 10375 10374 10378 10382 10382 10389 10399 10408 10415 10421 10428 10435 10437 10438 10440 10445 10458 10472 10476 10476 10475 10475 10481 10486 10492 10503 10510 10511 10512 10515 10516 10517 10518 10520 10519 10514 10512 10512 10509 10512 10522 10522 10519 10525 10528 10524 10525 10528 10529 10533 10536 10538 10540 10539 10540 10545 10550 10553 10547 10547 10563 10567 10557 10567 10581 10575 10565 10558 10550 10550 10554 10555 10557 10556 10554 10554 10554 10554 10554 10552
10309 10317 10328 10332 10333 10340 10350 10357 10358 10358 10363 10366 10367 10374 10385 10393 10402 10409 10413 10417 10421 10425 10429 10436 10454 10466 10465 10462 10460 10461 10470 10479 10485 10493 10495 10493 10496 10501 10502 10504 10506 10505 10503 10501 10501 10501 10500 10503 10512 10513 10509 10512 10516 10515 10515 10516 10517 10520 10523 10525 10531 10535 10537 10539 10543 10544 10539 10542 10553 10548 10543 10562 10574 10562 10551 10545 10541 10543 10545 10545 10545 10542 10542 10544 10544 10544 10544 10542
10295 10302 10312 10316 10319 10326 10334 10339 10342 10346 10351 10353 10356 10363 10372 10382 10393 10398 10398 10401 10407 10414 10417 10426 10442 10450 10447 10444 10444 10450 10463 10472 10475 10478 10477 10476 10482 10487 10487 10488 10491 10490 10489 10491 10493 10493 10492 10494 10501 10501 10496 10501 10509 10507 10503 10505 10504 10502 10508 10520 10531 10534 10532 10530 10533 10535 10532 10535 10539 10532 10536 10557 10560 10544 10538 10538 10537 10536 10535 10534 10534 10532 10533 10534 10534 10534 10534 10532
10280 10287 10294 10298 10303 10310 10318 10323 10326 10328 10333 10342 10350 10356 10362 10372 10381 10382 10381 10384 10392 10400 10407 10416 10426 10431 10428 10428 10434 10447 10460 10460 10458 10460 10460 10460 10466 10471 10471 10473 10477 10479 10480 10483 10483 10484 10484 10485 10490 10490 10485 10490 10498 10497 10494 10494 10486 10486 10505 10525 10528 10524 10521 10520 10524 10528 10526 10524 10523 10523 10534 10545 10539 10531 10533 10532 10527 10526 10527 10526 10525 10524 10525 10525 10525 10525 10523 10522